Location: Volkssternwarte_EN
(51.3230°N, 7.4010°E)
Time: 01:04:28
(UTC+01:00)

ISS - Visible Passes

Search period start: 31 January 2023 00:00
Search period end: 10 February 2023 00:00
Orbit: 413 x 419 km, 51.6° (Epoch: 30 January)

Date Brightness Start Highest point End Pass type
(mag) Time Alt. Az. Time Alt. Az. Time Alt. Az.
31 Jan -2.0 19:19:20 10° W 19:22:17 29° SSW 19:23:38 21° S visible
01 Feb -2.5 18:30:31 10° W 18:33:42 40° SSW 18:36:53 10° SE visible
02 Feb -0.9 19:19:14 10° WSW 19:21:15 15° SW 19:23:16 10° S visible
03 Feb -1.3 18:30:01 10° W 18:32:41 22° SW 18:35:21 10° SSE visible
05 Feb -0.3 18:30:33 10° WSW 18:31:24 11° SW 18:32:14 10° SSW visible
